Weather History for KAEG - April, 2013

Change the Weather History Date:

Tuesday, April 30, 2013

  Actual Average Record
Temperature  
Mean Temperature 70 °F -  
Max Temperature 82 °F - - ()
Min Temperature 57 °F - - ()
Cooling Degree Days 4    
Growing Degree Days 20 (Base 50)    
Moisture  
Dew Point 9 °F    
Average Humidity 10    
Maximum Humidity 18    
Minimum Humidity 5    
Precipitation  
Precipitation 0.00 in - - ()
Sea Level Pressure  
Sea Level Pressure 29.88 in    
Wind  
Wind Speed 11 mph (West)    
Max Wind Speed 29 mph    
Max Gust Speed 43 mph    
Visibility 10 miles    
Events      
T = Trace of Precipitation, MM = Missing Value Source: NWS Daily Summary

Daily Weather History Graph

Daily Weather History Graph

Search for Another Location

Airport or City:

Trip Planner

Search our weather history database for the weather conditions in past years. The results will help you decide how hot, cold, wet, or windy it might be!

Date:

Astronomy

Apr. 30, 2013 Rise Set
Actual Time 6:16 AM MDT 7:52 PM MDT
Civil Twilight 5:49 AM MDT 8:19 PM MDT
Nautical Twilight 5:17 AM MDT 8:52 PM MDT
Astronomical Twilight 4:43 AM MDT 9:26 PM MDT
Moon 12:15 AM MDT (4/30) 10:51 AM MDT (4/30)
Length of Visible Light 14h 29m
Length of Day
13h 35m
Waning Gibbous, 69% of the Moon is Illuminated
Apr 30
Waning Gibbous
May 2
Last Quarter
May 9
New
May 17
First Quarter
May 24
Full

Hourly Weather History & Observations

Time (MDT) Temp. Dew Point Humidity Pressure Visibility Wind Dir Wind Speed Gust Speed Precip Events Conditions
7:50 AM 57.2 °F 14.0 °F 18% 29.93 in 10.0 mi West 4.6 mph - N/A   Partly Cloudy
8:50 AM 64.4 °F 14.0 °F 14% 29.94 in 10.0 mi Calm Calm - N/A   Scattered Clouds
9:50 AM 68.0 °F 14.0 °F 12% 29.94 in 10.0 mi NE 4.6 mph - N/A   Scattered Clouds
10:50 AM 71.6 °F 14.0 °F 11% 29.94 in 10.0 mi Variable 6.9 mph - N/A   Scattered Clouds
11:50 AM 75.2 °F 14.0 °F 10% 29.92 in 10.0 mi SSE 3.5 mph - N/A   Scattered Clouds
12:50 PM 80.6 °F 10.4 °F 7% 29.89 in 10.0 mi West 8.1 mph 23.0 mph N/A   Scattered Clouds
1:50 PM 82.4 °F 8.6 °F 6% 29.86 in 10.0 mi WSW 28.8 mph 42.6 mph N/A   Scattered Clouds
2:50 PM 80.6 °F 10.4 °F 7% 29.86 in 10.0 mi West 16.1 mph 27.6 mph N/A   Scattered Clouds
3:50 PM 80.6 °F 5.0 °F 6% 29.83 in 10.0 mi West 19.6 mph 31.1 mph N/A   Scattered Clouds
4:50 PM 82.4 °F 3.2 °F 5% 29.82 in 10.0 mi West 17.3 mph 32.2 mph N/A   Partly Cloudy
5:50 PM 80.6 °F 1.4 °F 5% 29.81 in 10.0 mi West 19.6 mph 33.4 mph N/A   Partly Cloudy
7:50 PM 73.4 °F 5.0 °F 7% 29.83 in 10.0 mi West 17.3 mph - N/A   Mostly Cloudy
8:50 PM 68.0 °F 6.8 °F 9% 29.85 in 10.0 mi West 12.7 mph - N/A   Clear
9:50 PM 66.2 °F 6.8 °F 10% 29.87 in 10.0 mi West 13.8 mph - N/A   Clear
10:15 PM 64.4 °F 6.8 °F 10% 29.88 in 10.0 mi WNW 15.0 mph - N/A   Clear
10:35 PM 64.4 °F 8.6 °F 11% 29.88 in 10.0 mi WNW 16.1 mph - N/A   Clear
10:55 PM 62.6 °F 8.6 °F 12% 29.88 in 10.0 mi WNW 16.1 mph - N/A   Clear
11:15 PM 62.6 °F 8.6 °F 12% 29.88 in 10.0 mi West 17.3 mph 24.2 mph N/A   Clear
11:35 PM 62.6 °F 8.6 °F 12% 29.88 in 10.0 mi West 18.4 mph - N/A   Clear
11:55 PM 64.4 °F 8.6 °F 11% 29.88 in 10.0 mi West 19.6 mph - N/A   Clear